Weather observations for the past three days for
Evergreen, Middleton Field
Imperial (Metric)
Date Time (cdt) Wind (mph) Vis. (mi.) Weather Sky Cond. Temperature (ºF) Relative Humidity Wind Chill (°F) Heat Index (°F) Pressure Precipitation (in)
Air Dwpt 6 hour altimeter (in) sea level (mb) 1 hr 3 hr 6 hr
Max. Min.
23 04:53 Calm 9.00 Fair CLR 69.1 66.9 93% 29.99 1015.0
23 03:53 Calm 10.00 Fair CLR 71.1 66.9 87% 29.98 1014.9
23 02:53 Calm 10.00 Fair CLR 71.1 66.9 87% 29.98 1014.8
23 01:53 Calm 10.00 Fair CLR 72 68 87% 30 1015.5
23 00:53 Calm 10.00 Fair CLR 72 68 89.1 72 87% 30.01 1015.8
22 23:53 Calm 10.00 Fair CLR 75 68 79% 76 30.02 1016.2
22 22:53 SW 3 10.00 Fair CLR 77 68 74% 79 30.02 1016.3
22 21:53 S 5 10.00 Fair CLR 73.9 70 88% 30.01 1015.8
22 20:53 Calm 10.00 Mostly Cloudy BKN075 77 70 79% 79 29.99 1015.2
22 19:53 Calm 10.00 Fair CLR 82 68 63% 85 29.98 1014.9
22 18:53 Calm 10.00 Fair CLR 89.1 64.9 97 89.1 45% 91 29.97 1014.6
22 17:53 SW 5 10.00 Fair CLR 93.9 61 33% 94 29.96 1014.3
22 16:53 SW 8 10.00 Fair CLR 95 63 35% 96 29.98 1014.6
22 15:53 Vrbl 5 10.00 Fair CLR 96.1 63 34% 98 29.99 1015.1
22 14:53 Calm 10.00 Fair CLR 96.1 62.1 32% 97 30.01 1015.9
22 13:53 Calm 10.00 Fair CLR 95 64 36% 97 30.04 1016.7
22 12:53 SE 7 10.00 A Few Clouds FEW065 95 64.9 95 68 37% 98 30.06 1017.6
22 11:53 SE 9 10.00 Fair CLR 91.9 66 43% 95 30.09 1018.4
22 10:53 Vrbl 6 10.00 Fair CLR 91 64.9 42% 93 30.1 1018.7
22 09:53 NE 5 10.00 Fair CLR 86 69.1 57% 90 30.11 1019.0
22 08:53 Vrbl 3 10.00 Fair CLR 81 68 65% 84 30.11 1019.2
22 07:53 Calm 10.00 Fair CLR 73.9 66.9 79% 30.11 1019.2
22 06:53 N 5 10.00 Fair CLR 69.1 64.9 69.1 64 87% 30.1 1019.0
22 05:53 Calm 6.00 Fog/Mist CLR 64.9 63 93% 30.09 1018.7
22 04:53 Calm 9.00 Fair CLR 64.9 64 97% 30.09 1018.4
22 03:53 Calm 7.00 Fair CLR 66 64 93% 30.08 1018.2
22 02:53 Calm 8.00 Fair CLR 66.9 64.9 93% 30.07 1017.8
22 01:53 Calm 10.00 Fair CLR 68 66 93% 30.09 1018.5
22 00:53 Calm 10.00 Fair CLR 69.1 66 88 69.1 90% 30.1 1018.7
21 23:53 Calm 10.00 Fair CLR 70 66.9 90% 30.11 1019.0
21 22:53 Calm 10.00 Fair CLR 71.1 68 90% 30.1 1018.9
21 21:53 Calm 10.00 Fair CLR 73.9 69.1 85% 30.09 1018.4
21 20:53 Calm 10.00 Fair CLR 75.9 69.1 79% 77 30.08 1018.2
21 19:53 Calm 10.00 Fair CLR 80.1 68 67% 83 30.08 1018.2
21 18:53 NE 3 10.00 Fair CLR 89.1 66 93 88 47% 92 30.08 1018.2
21 17:53 NE 7 10.00 A Few Clouds FEW065 91 63 39% 92 30.08 1018.1
21 16:53 NE 8 10.00 Fair CLR 91.9 63 38% 93 30.09 1018.4
21 15:53 Calm 10.00 A Few Clouds FEW070 93 64 38% 95 30.11 1019.0
21 14:53 Vrbl 6 10.00 A Few Clouds FEW065 91.9 64 40% 94 30.11 1019.3
21 13:53 NE 8 10.00 Mostly Cloudy BKN060 90 66 45% 93 30.14 1020.1
21 12:53 NE 8 10.00 Partly Cloudy SCT060 91 64.9 91 71.1 42% 93 30.15 1020.7
21 11:53 E 8 10.00 Fair CLR 89.1 66.9 48% 92 30.17 1021.3
21 10:53 E 7 10.00 Fair CLR 87.1 68 53% 91 30.19 1022.0
21 09:53 Calm 10.00 Fair CLR 84 66.9 57% 87 30.2 1022.2
21 08:53 Vrbl 7 10.00 Fair CLR 81 66 61% 83 30.21 1022.6
21 07:53 E 5 10.00 Fair CLR 77 68 74% 79 30.21 1022.4
21 06:53 Calm 6.00 Fog/Mist CLR 71.1 68 72 66 90% 30.2 1022.3
21 05:53 Calm 0.75 Fog/Mist CLR 66.9 64.9 93% 30.19 1021.9
21 04:53 Calm 1.50 Fog/Mist CLR 68 66 93% 30.17 1021.4
21 03:53 Calm 1.25 Fog/Mist CLR 68 66.9 96% 30.17 1021.2
21 02:53 Calm 6.00 Fog/Mist SCT070 70 68 93% 30.16 1021.1
21 01:53 Calm 5.00 Fog/Mist CLR 71.1 68 90% 30.17 1021.3
21 00:53 Vrbl 3 10.00 Fair CLR 71.1 69.1 84.9 71.1 94% 30.17 1021.3
20 23:53 Calm 10.00 Fair CLR 73 70 90% 30.17 1021.5
20 22:53 Calm 10.00 Fair CLR 75 70 84% 75 30.18 1021.5
20 21:53 NW 5 10.00 Overcast SCT070 OVC100 77 71.1 82% 79 30.18 1021.5
20 20:53 Calm 10.00 Overcast OVC100 80.1 70 71% 83 30.16 1020.8
20 19:53 E 3 10.00 Overcast OVC100 82.9 69.1 63% 87 30.16 1020.9
20 18:53 E 8 10.00 Fair CLR 84.9 69.1 88 81 59% 89 30.16 1020.8
20 17:53 NE 7 G 18 10.00 Fair CLR 86 70 59% 91 30.15 1020.5
20 16:53 NE 9 10.00 A Few Clouds FEW030 86 72 63% 92 30.15 1020.8
20 15:53 NE 13 G 18 10.00 A Few Clouds FEW028 FEW060 87.1 72 61% 94 30.17 1021.5
20 14:53 NE 10 G 21 10.00 Mostly Cloudy SCT024 SCT034 BKN048 84 72 67% 90 30.19 1021.9
20 13:53 NE 10 G 18 10.00 Mostly Cloudy SCT023 SCT032 BKN043 81 71.1 72% 85 30.2 1022.4
20 12:53 NE 12 G 22 10.00 Mostly Cloudy SCT023 BKN029 BKN033 82.9 70 84 72 65% 87 30.22 1023.0
20 11:53 NE 12 G 22 10.00 Mostly Cloudy SCT030 BKN038 BKN080 82 69.1 65% 85 30.22 1023.2
20 10:53 E 10 10.00 Mostly Cloudy SCT026 BKN033 BKN041 82 69.1 65% 85 30.22 1023.1
20 09:53 E 13 G 23 10.00 Mostly Cloudy BKN028 81 68 65% 84 30.22 1022.9
20 08:53 E 12 G 23 10.00 Fair CLR 80.1 68 67% 83 30.21 1022.5
20 07:53 NE 8 10.00 Fair CLR 75.9 66.9 74% 77 30.2 1022.2
20 06:53 NE 5 10.00 Fair CLR 72 64.9 73 66 79% 30.19 1021.9
20 05:53 NE 5 10.00 Fair CLR 68 64 87% 30.17 1021.3
Date Time (cdt) Wind (mph) Vis. (mi.) Weather Sky Cond. Air Dwpt Max. Min. Relative Humidity Wind Chill (°F) Heat Index (°F) altimeter (in) sea level (mb) 1 hr 3 hr 6 hr
6 hour
Temperature (ºF) Pressure Precipitation (in)